Waarnemingen

Advertentie
Mijn weer
Bierset/Liege, België (6478): temperatuur & dauwpunt: 12.10.2018 03:00:00 - 18.10.2018 03:00:00 (CEST)Bierset/Liege, België (6478): windsnelheid & windstoten: 12.10.2018 03:00:00 - 18.10.2018 03:00:00 (CEST)Bierset/Liege, België (6478): windrichting: 12.10.2018 03:00:00 - 18.10.2018 03:00:00 (CEST)Bierset/Liege, België (6478): luchtdruk: 12.10.2018 03:00:00 - 18.10.2018 03:00:00 (CEST)Bierset/Liege, België (6478): zicht: 12.10.2018 03:00:00 - 18.10.2018 03:00:00 (CEST)
Datum & Tijd tt [°C] td [°C] ff [km/u] ff [kn] fx [km/u] fx [kn] dd ppp [hPa] vv [km]
18.10.2018 03:00:00 11,6 11,0 8 4 11 6 N 1022,1 2,2
18.10.2018 02:00:00 11,4 10,9 5 3 - - NNW 1022,1 2,2
18.10.2018 01:00:00 11,2 10,7 5 3 11 6 N 1021,9 3,0
18.10.2018 00:00:00 12,0 11,3 5 3 7 4 NNW 1021,8 3,5
17.10.2018 23:00:00 13,0 11,9 5 3 - - N 1021,6 6
17.10.2018 22:00:00 13,5 11,8 8 4 7 4 NNO 1021,1 8
17.10.2018 21:00:00 14,4 12,4 4 2 11 6 N 1020,6 9
17.10.2018 20:00:00 15,0 12,5 5 3 - - N 1020,0 9
17.10.2018 19:00:00 16,2 12,6 5 3 11 6 NNW 1019,4 10
17.10.2018 18:00:00 18,0 12,5 9 5 14 8 N 1018,9 10
17.10.2018 17:00:00 18,8 12,3 8 4 - - NNW 1018,6 10
17.10.2018 16:00:00 18,9 12,6 8 4 11 6 NNW 1018,6 8
17.10.2018 15:00:00 18,5 12,2 8 4 11 6 NNW 1018,9 8
17.10.2018 14:00:00 18,2 12,6 5 3 - - N 1019,3 8
17.10.2018 13:00:00 16,8 12,2 4 2 14 8 - 1019,7 6
17.10.2018 12:00:00 15,8 11,3 9 5 14 8 NNW 1019,9 9
17.10.2018 11:00:00 15,5 9,8 2 1 - - - 1019,7 10
17.10.2018 10:00:00 12,9 9,4 9 5 25 14 ZZO 1019,5 10
17.10.2018 09:00:00 12,0 9,0 8 4 22 12 ZZO 1019,5 10
17.10.2018 08:00:00 12,6 8,8 5 3 - - ZZO 1019,3 10
17.10.2018 07:00:00 12,9 8,6 8 4 11 6 ZZO 1019,3 10
17.10.2018 06:00:00 13,4 8,5 8 4 18 10 ZZW 1019,1 10
17.10.2018 05:00:00 14,1 8,3 11 6 - - ZW 1018,7 10
17.10.2018 04:00:00 15,0 8,4 11 6 25 14 Z 1018,5 10
17.10.2018 03:00:00 15,0 8,5 11 6 22 12 ZZO 1018,7 30
17.10.2018 02:00:00 15,3 8,5 15 8 - - ZO 1018,6 10
17.10.2018 01:00:00 15,1 9,1 16 9 32 18 ZO 1019,0 10
17.10.2018 00:00:00 16,3 8,6 15 8 32 18 ZZO 1019,1 10
16.10.2018 23:00:00 17,1 8,5 13 7 - - ZO 1019,3 10
16.10.2018 22:00:00 18,0 7,2 11 6 29 16 ZZO 1019,2 10
16.10.2018 21:00:00 19,8 6,7 9 5 29 16 Z 1018,9 10
16.10.2018 20:00:00 20,4 7,1 8 4 - - Z 1018,6 10
16.10.2018 19:00:00 21,6 7,6 5 3 11 6 Z 1018,1 10
16.10.2018 18:00:00 23,0 8,1 8 4 18 10 ZZO 1017,7 10
16.10.2018 17:00:00 23,6 8,4 11 6 - - ZZO 1017,6 10
16.10.2018 16:00:00 23,9 8,1 8 4 14 8 ZZO 1017,8 10
16.10.2018 15:00:00 23,1 8,5 8 4 14 8 ZZO 1017,9 10
16.10.2018 14:00:00 23,5 9,1 4 2 - - - 1018,1 10
16.10.2018 13:00:00 21,4 10,5 5 3 32 18 ZO 1018,5 10
16.10.2018 12:00:00 19,0 10,5 5 3 14 8 Z 1018,8 10
16.10.2018 11:00:00 16,1 9,6 8 4 - - Z 1018,9 10
16.10.2018 10:00:00 12,8 8,9 9 5 14 8 ZZO 1019,1 10
16.10.2018 09:00:00 11,9 8,6 4 2 14 8 - 1019,0 10
16.10.2018 08:00:00 11,4 8,3 2 1 - - - 1018,6 10
16.10.2018 07:00:00 12,1 8,3 15 8 22 12 ZO 1017,9 10
16.10.2018 06:00:00 12,0 8,6 8 4 25 14 ZZO 1017,8 10
16.10.2018 05:00:00 12,8 9,1 8 4 - - ZZO 1017,5 10
16.10.2018 04:00:00 13,0 9,3 8 4 25 14 ZZO 1017,5 10
16.10.2018 03:00:00 13,6 9,5 4 2 22 12 - 1017,1 10
16.10.2018 02:00:00 14,8 9,6 2 1 - - - 1016,6 10
16.10.2018 01:00:00 14,6 9,8 16 9 25 14 ZO 1016,2 10
16.10.2018 00:00:00 15,9 9,5 13 7 32 18 ZO 1015,9 10
15.10.2018 23:00:00 16,7 9,2 13 7 - - ZO 1015,7 10
15.10.2018 22:00:00 17,5 9,1 11 6 14 8 ZO 1015,3 10
15.10.2018 21:00:00 18,3 8,8 11 6 14 8 ZO 1014,9 10
15.10.2018 20:00:00 19,9 8,3 11 6 - - Z 1014,5 10
15.10.2018 19:00:00 20,5 8,5 9 5 22 12 Z 1014,2 10
15.10.2018 18:00:00 21,6 9,0 13 7 22 12 Z 1013,4 10
15.10.2018 17:00:00 22,8 9,7 16 9 - - ZW 1012,9 10
15.10.2018 16:00:00 22,9 8,7 16 9 29 16 ZW 1012,7 10
15.10.2018 15:00:00 22,3 8,9 21 11 29 16 ZZW 1012,6 10
15.10.2018 14:00:00 21,8 9,4 13 7 - - Z 1012,6 10
15.10.2018 13:00:00 21,6 9,5 15 8 36 19 ZZW 1012,8 10
15.10.2018 12:00:00 20,7 8,4 21 11 32 18 Z 1012,7 10
15.10.2018 11:00:00 20,2 9,3 18 10 - - Z 1012,3 10
15.10.2018 10:00:00 18,4 8,1 18 10 32 18 Z 1012,1 10
15.10.2018 09:00:00 18,0 8,1 18 10 36 19 Z 1011,6 10
15.10.2018 08:00:00 17,9 8,2 16 9 - - Z 1011,0 10
15.10.2018 07:00:00 17,4 7,6 18 10 36 19 Z 1010,5 10
15.10.2018 06:00:00 17,4 7,3 15 8 36 19 Z 1010,2 10
15.10.2018 05:00:00 17,8 7,1 21 11 - - Z 1009,7 10
15.10.2018 04:00:00 18,2 6,9 18 10 36 19 Z 1009,6 10
15.10.2018 03:00:00 18,2 6,9 11 6 25 14 Z 1009,9 10
15.10.2018 02:00:00 18,0 6,7 15 8 - - Z 1010,0 10
15.10.2018 01:00:00 18,4 6,7 16 9 40 21 Z 1009,6 10
15.10.2018 00:00:00 18,7 6,4 16 9 40 21 ZZO 1009,2 10
14.10.2018 23:00:00 19,2 5,9 16 9 - - ZZO 1009,1 10
14.10.2018 22:00:00 20,0 5,3 18 10 29 16 ZZO 1008,7 40
14.10.2018 21:00:00 20,3 5,8 13 7 40 21 Z 1008,5 10
14.10.2018 20:00:00 21,8 5,2 18 10 - - ZZO 1008,2 40
14.10.2018 19:00:00 22,6 5,2 21 11 32 18 Z 1007,7 10
14.10.2018 18:00:00 23,1 5,4 22 12 43 23 Z 1007,3 10
14.10.2018 17:00:00 23,6 6,6 28 15 - - Z 1007,2 10
14.10.2018 16:00:00 24,4 6,9 31 17 54 29 Z 1007,2 10
14.10.2018 15:00:00 24,4 7,7 29 16 54 29 Z 1007,5 10
14.10.2018 14:00:00 23,8 7,8 35 19 - - Z 1007,7 10
14.10.2018 13:00:00 23,2 6,9 31 17 50 27 Z 1008,5 10
14.10.2018 12:00:00 20,6 8,4 22 12 43 23 Z 1009,1 10
14.10.2018 11:00:00 19,1 10,3 21 11 - - Z 1009,8 10
14.10.2018 10:00:00 18,0 10,0 24 13 40 21 Z 1010,1 10
14.10.2018 09:00:00 16,3 10,5 18 10 25 14 Z 1010,2 10
14.10.2018 08:00:00 16,1 10,6 16 9 - - Z 1010,1 10
14.10.2018 07:00:00 16,6 10,5 18 10 25 14 Z 1010,2 40
14.10.2018 06:00:00 17,0 10,6 16 9 25 14 ZZO 1010,5 10
14.10.2018 05:00:00 16,7 10,8 15 8 - - ZO 1010,8 10
14.10.2018 04:00:00 17,5 10,9 15 8 36 19 ZZO 1011,6 10
14.10.2018 03:00:00 17,7 11,2 13 7 22 12 ZZO 1012,4 10
14.10.2018 02:00:00 17,9 11,2 9 5 - - ZZO 1012,9 10
14.10.2018 01:00:00 18,9 11,2 15 8 29 16 Z 1013,5 10
14.10.2018 00:00:00 19,7 11,4 21 11 29 16 Z 1013,7 10
13.10.2018 23:00:00 19,9 11,3 11 6 - - Z 1014,0 10
13.10.2018 22:00:00 20,3 11,6 11 6 22 12 ZZO 1013,9 10
13.10.2018 21:00:00 20,9 11,9 13 7 29 16 ZZO 1013,9 10
13.10.2018 20:00:00 21,8 11,9 15 8 - - ZO 1014,1 10
13.10.2018 19:00:00 23,0 11,4 9 5 29 16 ZZO 1014,2 10
13.10.2018 18:00:00 24,2 11,6 18 10 32 18 ZZO 1014,5 10
13.10.2018 17:00:00 24,8 12,5 18 10 - - Z 1015,0 10
13.10.2018 16:00:00 24,8 12,5 24 13 43 23 Z 1015,7 10
13.10.2018 15:00:00 24,5 12,6 24 13 36 19 Z 1016,3 10
13.10.2018 14:00:00 24,1 13,3 22 12 - - Z 1017,2 10
13.10.2018 13:00:00 23,2 13,4 21 11 50 27 Z 1018,2 10
13.10.2018 12:00:00 21,6 14,0 22 12 32 18 Z 1018,8 40
13.10.2018 11:00:00 19,8 13,1 11 6 - - ZO 1019,5 10
13.10.2018 10:00:00 18,7 13,0 11 6 32 18 ZO 1019,7 10
13.10.2018 09:00:00 17,4 12,3 15 8 40 21 ZZO 1019,7 10
13.10.2018 08:00:00 17,2 12,4 15 8 - - ZZO 1019,7 10
13.10.2018 07:00:00 17,4 12,9 15 8 29 16 ZZO 1019,9 10
13.10.2018 06:00:00 18,3 12,6 15 8 29 16 ZZO 1020,2 10
13.10.2018 05:00:00 18,4 13,2 13 7 - - Z 1020,6 10
13.10.2018 04:00:00 18,3 12,8 15 8 29 16 ZZO 1020,4 10
13.10.2018 03:00:00 19,0 12,9 15 8 36 19 Z 1020,1 10
13.10.2018 02:00:00 19,4 12,8 18 10 - - Z 1020,0 10
13.10.2018 01:00:00 19,3 12,8 15 8 36 19 Z 1020,1 10
13.10.2018 00:00:00 19,4 13,0 15 8 25 14 Z 1020,4 10
12.10.2018 23:00:00 19,5 13,3 15 8 - - Z 1020,6 10
12.10.2018 22:00:00 19,8 13,8 13 7 22 12 Z 1020,3 10
12.10.2018 21:00:00 20,3 14,3 15 8 29 16 Z 1020,0 10
12.10.2018 20:00:00 21,0 14,6 13 7 - - Z 1019,7 10
12.10.2018 19:00:00 21,7 14,4 15 8 36 19 Z 1019,2 10
12.10.2018 18:00:00 22,6 14,7 18 10 36 19 Z 1019,0 10
12.10.2018 17:00:00 22,9 14,6 24 13 - - Z 1019,0 10
12.10.2018 16:00:00 23,4 14,0 18 10 32 18 Z 1018,9 10
12.10.2018 15:00:00 22,8 14,1 18 10 40 21 Z 1018,8 10
12.10.2018 14:00:00 22,1 13,5 21 11 - - Z 1019,0 10
12.10.2018 13:00:00 21,4 13,6 18 10 43 23 Z 1019,0 10
12.10.2018 12:00:00 20,6 13,9 22 12 40 21 Z 1019,1 10
12.10.2018 11:00:00 18,9 13,2 21 11 - - Z 1019,3 10
12.10.2018 10:00:00 17,0 13,0 16 9 40 21 Z 1018,9 10
12.10.2018 09:00:00 16,1 12,5 15 8 25 14 Z 1018,6 10
12.10.2018 08:00:00 15,3 12,4 16 9 - - Z 1017,7 10
12.10.2018 07:00:00 15,3 12,6 13 7 22 12 Z 1017,0 10
12.10.2018 06:00:00 15,6 12,6 16 9 29 16 Z 1016,9 10
12.10.2018 05:00:00 16,3 12,8 15 8 - - Z 1015,9 10
12.10.2018 04:00:00 16,9 13,2 21 11 36 19 Z 1015,3 10
12.10.2018 03:00:00 16,4 13,6 21 11 32 18 Z 1015,1 10

tt = temperatuur
td = dauwpunt
ff = windsnelheid
fx = windstoten
dd = windrichting
ppp = luchtdruk
vv = zicht

Weerstations in de omgeving